KC7RJK-2 Weather Reports


Display with metric or nautical units.
time (UTC)temp
F
wind
direction
speed
MPH
gust
MPH
rain 1hr
in
rain 24hr
in
rain mn
in
humidity
%
barometer
mb
20180219154312 32 22 3.0 6.0 0.00 0.22 0.00 89 1018.6
20180219153314 32 30 5.0 7.0 0.00 0.22 0.00 89 1018.5
20180219152312 32 351 3.0 6.0 0.00 0.22 0.00 90 1018.3
20180219151312 32 17 4.0 6.0 0.00 0.22 0.00 89 1018.1
20180219150312 32 357 4.0 5.0 0.00 0.22 0.00 89 1018.0
20180219145312 32 343 2.0 5.0 0.00 0.22 0.00 89 1017.8
20180219144312 32 17 3.0 5.0 0.00 0.24 0.00 90 1017.7
20180219143312 32 38 3.0 7.0 0.00 0.24 0.00 89 1017.4
20180219142312 32 17 2.0 3.0 0.00 0.25 0.00 90 1017.4
20180219141312 32 17 0.0 3.0 0.00 0.25 0.00 90 1017.3
20180219140312 32 17 2.0 3.0 0.00 0.25 0.00 90 1017.2
20180219135312 32 17 2.0 4.0 0.00 0.25 0.00 91 1017.1
20180219134312 32 345 1.0 3.0 0.00 0.25 0.00 90 1016.8
20180219133312 32 7 3.0 5.0 0.00 0.25 0.00 90 1016.7
20180219132312 32 341 0.0 3.0 0.00 0.29 0.00 90 1016.5
20180219131312 32 12 1.0 3.0 0.00 0.29 0.00 91 1016.2
20180219130312 32 42 0.0 4.0 0.00 0.29 0.00 90 1016.0
20180219125312 32 47 0.0 3.0 0.00 0.29 0.00 91 1015.9
20180219124312 32 7 0.0 5.0 0.00 0.30 0.00 91 1015.8
20180219123312 32 356 1.0 4.0 0.00 0.30 0.00 92 1015.6
20180219122312 32 7 2.0 3.0 0.00 0.30 0.00 92 1015.5
20180219121312 32 38 3.0 3.0 0.00 0.30 0.00 92 1015.3
20180219120312 32 37 2.0 6.0 0.00 0.30 0.00 92 1015.1
20180219115312 32 37 2.0 4.0 0.00 0.30 0.00 93 1015.0
20180219114312 32 27 3.0 3.0 0.00 0.30 0.00 93 1014.9
20180219113312 32 40 3.0 3.0 0.00 0.30 0.00 93 1014.8
20180219112312 32 31 0.0 4.0 0.00 0.30 0.00 93 1014.7
20180219111312 32 48 3.0 3.0 0.00 0.30 0.00 93 1014.6
20180219110313 32 12 1.0 4.0 0.00 0.30 0.00 93 1014.5
20180219105312 32 23 1.0 5.0 0.00 0.30 0.00 93 1014.4
20180219104312 32 52 3.0 4.0 0.00 0.30 0.00 93 1014.3
20180219103312 32 345 3.0 6.0 0.00 0.30 0.00 93 1014.2
20180219102312 32 344 2.0 6.0 0.00 0.30 0.00 93 1014.1
20180219101312 33 356 2.0 6.0 0.00 0.30 0.00 93 1013.9
20180219100312 33 332 2.0 6.0 0.00 0.30 0.00 94 1013.8
20180219095312 33 325 3.0 4.0 0.00 0.31 0.00 94 1013.5
20180219094312 33 337 0.0 4.0 0.00 0.31 0.00 95 1013.4
20180219093312 33 335 3.0 4.0 0.00 0.31 0.00 95 1013.3
20180219092312 33 318 3.0 5.0 0.00 0.31 0.00 95 1013.2
20180219091312 33 313 2.0 4.0 0.00 0.31 0.00 95 1013.1
20180219090312 33 248 3.0 3.0 0.00 0.31 0.00 95 1013.0
20180219085312 33 237 1.0 3.0 0.00 0.31 0.00 95 1012.9
20180219084312 33 237 2.0 3.0 0.00 0.31 0.00 95 1012.7
20180219083312 33 213 0.0 3.0 0.00 0.31 0.00 95 1012.6
20180219082312 33 213 0.0 3.0 0.00 0.31 0.00 95 1012.4
20180219081312 32 213 2.0 3.0 0.00 0.31 0.00 94 1012.3
20180219080312 32 213 3.0 3.0 0.00 0.31 0.00 94 1012.1
20180219075317 32 213 0.0 3.0 0.00 0.31 0.31 94 1012.0
20180219074312 33 213 1.0 3.0 0.00 0.31 0.31 94 1011.9
20180219073312 33 213 1.0 3.0 0.00 0.31 0.31 94 1011.7
20180219072312 33 213 3.0 3.0 0.00 0.31 0.31 93 1011.6
20180219071312 33 213 2.0 2.0 0.00 0.31 0.31 93 1011.6
20180219070312 33 213 2.0 3.0 0.00 0.31 0.31 93 1011.4
20180219065312 33 237 0.0 3.0 0.00 0.31 0.31 93 1011.3
20180219064312 34 223 1.0 5.0 0.00 0.31 0.31 92 1011.1
20180219063312 34 231 3.0 6.0 0.00 0.31 0.31 93 1011.0
20180219062313 34 209 2.0 5.0 0.01 0.31 0.31 93 1011.0
20180219061312 34 172 3.0 6.0 0.01 0.31 0.31 92 1010.9
20180219060312 34 217 3.0 6.0 0.01 0.31 0.31 92 1010.8
20180219055312 34 204 4.0 7.0 0.01 0.31 0.31 92 1010.6
20180219054312 34 188 3.0 7.0 0.01 0.31 0.31 92 1010.6
20180219053312 34 217 4.0 9.0 0.01 0.31 0.31 92 1010.4
20180219052312 34 213 5.0 8.0 0.01 0.30 0.31 91 1010.3
20180219051312 34 209 3.0 6.0 0.00 0.30 0.30 91 1010.2
20180219050312 35 205 3.0 6.0 0.00 0.30 0.30 92 1010.1
20180219045312 34 221 3.0 4.0 0.00 0.30 0.30 92 1010.0
20180219044312 34 202 0.0 6.0 0.00 0.30 0.30 92 1009.9
20180219043312 34 172 3.0 7.0 0.00 0.30 0.30 92 1009.8
20180219042312 34 205 3.0 7.0 0.00 0.30 0.30 91 1009.7
20180219041312 34 206 3.0 8.0 0.00 0.30 0.30 91 1009.7
20180219040312 35 202 7.0 7.0 0.00 0.30 0.30 91 1009.8
20180219035312 35 174 5.0 8.0 0.00 0.30 0.30 91 1009.9
20180219034312 35 191 3.0 8.0 0.00 0.30 0.30 90 1009.9
20180219033312 34 214 6.0 7.0 0.00 0.30 0.30 90 1009.7
20180219032312 34 209 5.0 7.0 0.00 0.30 0.30 90 1009.7
20180219031312 34 204 3.0 8.0 0.00 0.30 0.30 90 1009.5
20180219030312 34 202 5.0 6.0 0.00 0.30 0.30 90 1009.5
20180219025312 34 206 5.0 7.0 0.00 0.30 0.30 90 1009.4
20180219024312 34 203 3.0 7.0 0.00 0.31 0.30 90 1009.5
20180219023312 34 203 4.0 10.0 0.00 0.31 0.30 91 1009.5
20180219022312 34 205 6.0 8.0 0.00 0.31 0.30 91 1009.6
20180219021312 34 177 1.0 6.0 0.00 0.32 0.30 91 1009.6
20180219020312 34 181 3.0 7.0 0.00 0.32 0.30 90 1009.5
20180219015312 35 209 3.0 7.0 0.00 0.32 0.30 90 1009.4
20180219014312 35 212 3.0 9.0 0.00 0.33 0.30 88 1009.4
20180219013312 36 217 3.0 10.0 0.00 0.33 0.30 87 1009.4
20180219012312 36 250 2.0 11.0 0.00 0.33 0.30 86 1009.4
20180219011312 37 221 3.0 11.0 0.00 0.33 0.30 85 1009.4
20180219010312 38 245 8.0 12.0 0.00 0.33 0.30 86 1009.4
20180219005312 38 256 5.0 13.0 0.00 0.33 0.30 84 1009.4
20180219004312 38 228 7.0 8.0 0.01 0.33 0.30 85 1009.4
20180219003312 38 300 4.0 7.0 0.01 0.33 0.30 83 1009.5
20180219002312 39 288 7.0 10.0 0.01 0.33 0.30 81 1009.5
20180219001312 39 223 6.0 11.0 0.01 0.33 0.30 81 1009.6
20180219000312 40 247 7.0 13.0 0.01 0.33 0.30 81 1009.5
20180218235312 41 207 2.0 14.0 0.02 0.33 0.30 79 1009.5
20180218234311 42 256 6.0 15.0 0.03 0.33 0.30 77 1009.4
20180218233312 42 258 4.0 14.0 0.02 0.32 0.29 79 1009.5
20180218232312 41 259 10.0 12.0 0.03 0.32 0.29 81 1009.5
20180218231311 40 279 4.0 10.0 0.05 0.33 0.29 84 1009.5
20180218230312 39 239 3.0 7.0 0.05 0.33 0.29 89 1009.4
20180218225312 39 307 7.0 16.0 0.05 0.39 0.29 88 1009.6
20180218224312 41 281 12.0 25.0 0.04 0.39 0.28 82 1009.6
20180218223312 42 296 12.0 17.0 0.03 0.38 0.27 83 1009.3
20180218222312 40 229 4.0 13.0 0.02 0.37 0.26 87 1009.3
20180218221311 39 253 10.0 11.0 0.01 0.36 0.25 89 1009.6
20180218220312 38 272 5.0 10.0 0.01 0.36 0.25 92 1009.7
20180218215312 36 280 5.0 13.0 0.00 0.35 0.24 91 1009.6
20180218214311 37 17 7.0 13.0 0.00 0.35 0.24 87 1009.8
20180218213312 40 318 8.0 12.0 0.00 0.35 0.24 81 1009.7
20180218212311 41 263 6.0 14.0 0.00 0.36 0.24 85 1009.8
20180218211311 40 303 8.0 13.0 0.01 0.36 0.24 88 1010.0
20180218210311 40 310 12.0 17.0 0.01 0.36 0.24 83 1010.1
20180218205311 43 288 16.0 18.0 0.05 0.36 0.24 83 1010.0
20180218204312 42 233 8.0 15.0 0.06 0.36 0.24 86 1010.2
20180218203311 41 259 11.0 13.0 0.06 0.36 0.24 91 1010.2
20180218202313 39 266 10.0 11.0 0.07 0.36 0.24 91 1010.2
20180218201312 38 231 8.0 8.0 0.07 0.36 0.24 96 1010.4
20180218200311 36 210 4.0 7.0 0.07 0.36 0.24 94 1010.4
20180218195311 34 204 4.0 4.0 0.05 0.33 0.21 93 1010.7
20180218194311 35 246 3.0 10.0 0.03 0.31 0.19 90 1010.8
20180218193311 37 270 9.0 17.0 0.03 0.31 0.19 89 1011.0
20180218192312 39 267 10.0 10.0 0.01 0.29 0.17 89 1010.9
20180218191311 40 258 4.0 9.0 0.01 0.29 0.17 90 1010.8
20180218190311 38 214 4.0 10.0 0.01 0.29 0.17 94 1010.7
20180218185311 37 251 7.0 12.0 0.02 0.29 0.17 91 1010.7
20180218184311 38 235 3.0 10.0 0.01 0.28 0.16 89 1010.6
20180218183311 38 244 5.0 10.0 0.01 0.28 0.16 90 1010.7
20180218182311 39 188 6.0 11.0 0.01 0.28 0.16 94 1010.8
20180218181311 37 204 7.0 10.0 0.02 0.28 0.16 94 1010.8
20180218180311 35 186 5.0 10.0 0.02 0.28 0.16 94 1010.7
20180218175312 36 207 4.0 13.0 0.03 0.28 0.16 93 1011.0
20180218174311 36 250 5.0 11.0 0.03 0.27 0.15 94 1010.9
20180218173311 35 225 5.0 10.0 0.03 0.27 0.15 94 1011.0
20180218172311 35 209 4.0 11.0 0.04 0.27 0.15 93 1010.9
20180218171311 35 212 7.0 10.0 0.06 0.27 0.15 92 1011.1
20180218170311 36 244 6.0 9.0 0.05 0.26 0.14 93 1011.0
20180218165311 36 253 5.0 8.0 0.05 0.26 0.14 96 1011.1
20180218164311 35 266 5.0 11.0 0.04 0.25 0.13 94 1010.9
20180218163311 35 212 8.0 10.0 0.04 0.25 0.13 95 1010.9
20180218162311 35 254 6.0 11.0 0.03 0.23 0.12 95 1011.0
20180218161311 35 256 5.0 10.0 0.01 0.22 0.10 95 1011.1
20180218160312 34 173 2.0 6.0 0.00 0.21 0.09 95 1010.9
20180218155311 34 204 4.0 6.0 0.00 0.21 0.09 95 1010.8